Date,TemperatureHighF,TemperatureAvgF,TemperatureLowF,DewpointHighF,DewpointAvgF,DewpointLowF,HumidityHigh,HumidityAvg,HumidityLow,PressureMaxIn,PressureMinIn,WindSpeedMaxMPH,WindSpeedAvgMPH,GustSpeedMaxMPH,PrecipitationSumIn
2013-5-1,91.0,78.5,63.0,-99.9,-99.9,-99.9,0,0,100,0.00,40.00,16,6,24,0.00
2013-5-2,86.0,76.1,68.0,-99.9,-99.9,-99.9,0,0,100,0.00,40.00,25,14,35,0.00
2013-5-3,91.0,77.9,67.0,-99.9,-99.9,-99.9,0,0,100,0.00,40.00,16,6,26,0.00
2013-5-4,91.0,80.5,69.0,-99.9,-99.9,-99.9,0,0,100,0.00,40.00,15,7,23,0.00
2013-5-5,83.0,71.6,62.0,-99.9,-99.9,-99.9,0,0,100,0.00,40.00,25,8,28,0.00
2013-5-6,77.0,69.0,58.0,-99.9,-99.9,-99.9,0,0,100,0.00,40.00,21,9,25,0.00
2013-5-7,72.0,65.1,58.0,-99.9,-99.9,-99.9,0,0,100,0.00,40.00,25,-30,25,0.00
2013-5-8,77.0,66.2,54.0,-99.9,-99.9,-99.9,0,0,100,0.00,40.00,12,5,16,0.00
2013-5-9,81.0,71.1,57.0,-99.9,-99.9,-99.9,0,0,100,0.00,40.00,11,6,14,0.00
2013-5-10,90.0,79.1,63.0,-99.9,-99.9,-99.9,0,0,100,0.00,40.00,17,-7,20,0.00
2013-5-11,94.0,84.2,69.0,-99.9,-99.9,-99.9,0,0,100,0.00,40.00,18,6,20,0.00
2013-5-12,98.0,87.7,71.0,-99.9,-99.9,-99.9,0,0,100,0.00,40.00,14,-32,19,0.00
2013-5-13,101.0,89.4,74.0,-99.9,-99.9,-99.9,0,0,100,0.00,40.00,12,6,14,0.00
2013-5-14,100.0,88.2,73.0,-99.9,-99.9,-99.9,0,0,100,0.00,40.00,17,8,24,0.00
2013-5-15,94.0,81.7,69.0,-99.9,-99.9,-99.9,0,0,100,0.00,40.00,16,6,19,0.00
2013-5-16,95.0,72.7,66.0,-99.9,-99.9,-99.9,0,0,100,0.00,40.00,14,8,18,0.00
2013-5-17,87.0,74.8,65.0,-99.9,-99.9,-99.9,0,0,100,0.00,40.00,22,8,25,0.00
2013-5-18,87.0,75.7,61.0,-99.9,-99.9,-99.9,0,0,100,0.00,40.00,10,5,12,0.00
2013-5-19,90.0,78.4,64.0,-99.9,-99.9,-99.9,0,0,100,0.00,40.00,10,5,13,0.00
2013-5-20,91.0,81.4,67.0,-99.9,-99.9,-99.9,0,0,100,0.00,40.00,26,10,35,0.00
2013-5-21,97.0,87.7,69.0,-99.9,-99.9,-99.9,0,0,100,0.00,40.00,14,-138,18,0.00
2013-5-22,95.0,82.0,68.0,-99.9,-99.9,-99.9,0,0,100,0.00,40.00,15,6,25,0.00
2013-5-23,89.0,77.4,61.0,-99.9,-99.9,-99.9,0,0,100,0.00,40.00,14,8,20,0.00
2013-5-24,89.0,76.3,62.0,-99.9,-99.9,-99.9,0,0,100,0.00,40.00,9,4,12,0.00
2013-5-25,91.0,78.9,63.0,-99.9,-99.9,-99.9,0,0,100,0.00,40.00,16,6,17,0.00
2013-5-26,89.0,76.3,64.0,-99.9,-99.9,-99.9,0,0,100,0.00,40.00,14,7,19,0.00
2013-5-27,90.0,78.1,68.0,-99.9,-99.9,-99.9,0,0,100,0.00,40.00,15,5,16,0.00
2013-5-28,91.0,80.6,68.0,-99.9,-99.9,-99.9,0,0,100,0.00,40.00,18,7,20,0.00
2013-5-29,91.0,78.5,66.0,-99.9,-99.9,-99.9,0,0,100,0.00,40.00,15,6,20,0.00
2013-5-30,91.0,81.0,69.0,-99.9,-99.9,-99.9,0,0,100,0.00,40.00,16,9,20,0.00
2013-5-31,93.0,81.0,69.0,-99.9,-99.9,-99.9,0,0,100,0.00,40.00,16,6,17,0.00